Вернуться в каталог

STARLINK-5971

АктивенСвязьVLEO
NORAD 56917·PAYLOAD·🇺🇸 United States

Запущен Jun 12, 2023 с Cape Canaveral Space Force Station

Loading…

Ближайшие Пролёты (ближайшие 24 часа)

TLE

СвежийSource: CelesTrak SupGP

Эпоха: Sep 15, 2026, 02:22 UTC

1 56917C 23083AT  26258.09909722 -.00020384  00000+0 -73809-3 0  2581
2 56917  43.0036  81.1954 0002131 278.2864  78.5267 15.27596770    13

Отслеживайте STARLINK-5971 в реальном времени с AllMySat

Download on the App Store